Location: Newark
(37.9800°N, 91.3000°W)
Time: 22:50:20
(UTC+00:00)

NOAA 19 - Pass Details

Date: 08 December 2019
Orbit: 840 x 862 km, 99.2° (Epoch: 21 January)

Event Time Altitude Azimuth Distance (km) Brightness Sun altitude
Rises 23:17:00 0° 177° (S) 3,412 8.7 -6.4°
Reaches altitude 10° 23:19:24 10° 182° (S) 2,482 8.0 -6.8°
Maximum altitude 23:24:48 54° 259° (W) 1,035 6.2 -7.8°
Drops below altitude 10° 23:30:14 10° 336° (NNW) 2,506 7.7 -8.8°
Sets 23:32:41 0° 341° (NNW) 3,447 8.4 -9.2°
